Location: Le Domaine
(47.0333°N, 76.5361°W)
Time: 10:25:22
(UTC-05:00)

S-56A Canister/Altair - Pass Details

Date: 20 November 2019
Orbit: 633 x 2499 km, 38.9° (Epoch: 07 December)

Event Time Altitude Azimuth Distance (km) Brightness Sun altitude
Rises 21:56:48 0° 270° (W) 3,780 11.5 -54.1°
Enters shadow 21:57:27 - 268° (W) 3,558 11.3 -54.2°
Reaches altitude 10° 22:00:59 10° 248° (WSW) 2,497 - -54.7°
Maximum altitude 22:03:56 14° 216° (SW) 2,004 - -55.0°
Drops below altitude 10° 22:06:34 10° 183° (S) 2,154 - -55.4°
Sets 22:09:44 0° 157° (SSE) 2,948 - -55.8°
